N3FWE Weather Reports


time (UTC)temp
C
wind
direction
speed
KPH
gust
KPH
rain 1hr
cm
rain 24hr
cm
rain mn
cm
humidity
%
barometer
mb
20260507084959 11 309 1.6 8.0 0.00 0.61 0.00 56 1012.1
20260507083959 11 347 1.6 9.7 0.00 0.61 0.00 55 1012.1
20260507082959 11 313 0.0 4.8 0.00 0.61 0.00 57 1012.1
20260507081959 11 317 1.6 6.4 0.00 0.61 0.00 56 1012.1
20260507080959 11 311 1.6 12.9 0.00 0.61 0.00 56 1012.2
20260507075959 11 5 1.6 12.9 0.00 0.61 0.00 55 1012.2
20260507074959 11 267 1.6 6.4 0.00 0.61 0.00 57 1012.2
20260507073959 11 308 3.2 6.4 0.00 0.61 0.00 58 1012.4
20260507072959 11 18 1.6 3.2 0.00 0.61 0.00 60 1012.3
20260507071959 11 15 4.8 11.3 0.00 0.61 0.00 56 1012.4
20260507070959 11 259 1.6 11.3 0.00 0.61 0.00 57 1012.4
20260507065959 12 286 4.8 12.9 0.00 0.61 0.00 58 1012.4
20260507064959 12 232 3.2 11.3 0.00 0.61 0.00 59 1012.5
20260507063959 12 71 3.2 14.5 0.00 0.61 0.00 57 1012.5
20260507062958 12 280 3.2 12.9 0.00 0.61 0.00 60 1012.2
20260507061959 12 279 3.2 16.1 0.00 0.61 0.00 62 1012.4
20260507060959 12 284 4.8 16.1 0.00 0.61 0.00 64 1012.3
20260507055959 12 273 3.2 12.9 0.00 0.61 0.00 69 1012.2
20260507055000 12 355 3.2 22.5 0.00 0.61 0.00 72 1012.2
20260507053958 12 277 3.2 14.5 0.00 0.61 0.00 73 1011.9
20260507052959 12 317 1.6 9.7 0.00 0.61 0.00 72 1012.3
20260507051959 12 263 1.6 8.0 0.00 0.61 0.00 74 1012.2
20260507050958 12 338 1.6 8.0 0.00 0.61 0.00 74 1012.1
20260507045959 12 342 1.6 8.0 0.00 0.61 0.00 75 1012.1
20260507044958 13 325 3.2 9.7 0.00 0.61 0.00 75 1012.1
20260507044000 13 329 1.6 6.4 0.00 0.61 0.00 75 1012.2
20260507043000 13 314 3.2 6.4 0.00 0.61 0.00 75 1012.6
20260507042000 13 327 3.2 14.5 0.00 0.61 0.00 73 1012.1
20260507041000 13 360 3.2 14.5 0.00 0.61 0.00 71 1012.1
20260507040005 13 286 3.2 14.5 0.00 0.61 0.00 73 1012.1
20260507035000 13 5 1.6 12.9 0.00 0.61 0.61 74 1012.2
20260507034000 13 336 3.2 11.3 0.00 0.61 0.61 74 1011.8
20260507033001 13 271 3.2 9.7 0.00 0.61 0.61 74 1011.9
20260507032001 13 304 1.6 6.4 0.00 0.61 0.61 75 1011.8
20260507031000 13 267 1.6 6.4 0.00 0.61 0.61 76 1011.5
20260507030001 13 300 3.2 11.3 0.00 0.61 0.61 75 1012.0
20260507025000 13 342 3.2 9.7 0.00 0.61 0.61 75 1011.8
20260507024000 14 332 3.2 8.0 0.00 0.61 0.61 74 1011.8
20260507023000 14 329 4.8 17.7 0.00 0.61 0.61 75 1012.0
20260507022001 14 302 3.2 20.9 0.00 0.61 0.61 77 1011.8
20260507021001 14 23 4.8 14.5 0.00 0.61 0.61 77 1011.7
20260507020000 14 344 4.8 14.5 0.00 0.61 0.61 77 1011.7
20260507015001 15 14 6.4 22.5 0.00 0.61 0.61 77 1011.4
20260507014000 15 11 3.2 9.7 0.00 0.61 0.61 76 1011.5
20260507013000 15 337 3.2 11.3 0.00 0.61 0.61 76 1011.6
20260507012000 15 255 3.2 12.9 0.00 0.61 0.61 77 1011.6
20260507011001 15 31 1.6 4.8 0.00 0.61 0.61 77 1011.5
20260507010001 15 258 1.6 8.0 0.00 0.61 0.61 78 1011.3
20260507005000 15 342 3.2 11.3 0.00 0.61 0.61 78 1011.3
20260507003959 15 273 4.8 14.5 0.00 0.61 0.61 77 1011.2
20260507002959 16 258 4.8 12.9 0.00 0.61 0.61 80 1011.1
20260507001959 16 246 3.2 14.5 0.00 0.61 0.61 79 1010.8
20260507000959 16 310 3.2 12.9 0.00 0.61 0.61 78 1010.6
20260506235959 16 23 3.2 11.3 0.00 0.61 0.61 78 1010.4
20260506234959 16 19 3.2 16.1 0.00 0.61 0.61 78 1009.9
20260506234001 16 349 1.6 8.0 0.00 0.61 0.61 80 1009.6
20260506232959 16 286 1.6 12.9 0.00 0.61 0.61 81 1009.4
20260506232000 17 252 4.8 12.9 0.00 0.61 0.61 81 1009.2
20260506230959 17 19 3.2 12.9 0.00 0.61 0.61 81 1009.2
20260506230000 17 333 4.8 16.1 0.00 0.61 0.61 81 1009.0
20260506224959 17 319 3.2 20.9 0.00 0.61 0.61 83 1009.1
20260506223959 17 276 3.2 12.9 0.00 0.61 0.61 85 1009.1
20260506222959 17 306 3.2 14.5 0.00 0.61 0.61 86 1008.9
20260506221959 18 251 1.6 8.0 0.00 0.61 0.61 91 1008.8
20260506221001 18 275 3.2 11.3 0.00 0.61 0.61 90 1008.7
20260506220000 18 256 3.2 11.3 0.00 0.61 0.61 89 1008.6
20260506214959 18 267 1.6 9.7 0.00 0.61 0.61 88 1008.5
20260506213959 18 277 1.6 11.3 0.00 0.61 0.61 88 1008.3
20260506212959 18 256 3.2 6.4 0.00 0.61 0.61 89 1008.0
20260506212000 18 246 4.8 11.3 0.00 0.61 0.61 88 1007.9
20260506211000 18 270 3.2 9.7 0.00 0.61 0.61 90 1007.9
20260506205959 18 289 4.8 11.3 0.00 0.61 0.61 91 1007.7
20260506205000 18 257 6.4 16.1 0.00 0.61 0.61 92 1007.8
20260506203959 18 246 3.2 12.9 0.00 0.61 0.61 93 1007.8
20260506202959 18 256 1.6 12.9 0.00 0.61 0.61 94 1007.6
20260506201959 18 259 1.6 6.4 0.00 0.61 0.61 94 1007.7
20260506201000 18 262 1.6 9.7 0.00 0.61 0.61 95 1007.7
20260506195959 17 213 0.0 6.4 0.00 0.61 0.61 96 1007.7
20260506194959 17 288 0.0 1.6 0.00 0.61 0.61 95 1007.8
20260506193959 17 288 0.0 0.0 0.00 0.61 0.61 96 1007.9
20260506192959 17 288 0.0 0.0 0.00 0.61 0.61 95 1008.1
20260506191959 17 288 0.0 0.0 0.00 0.61 0.61 95 1008.1
20260506190959 17 288 0.0 0.0 0.00 0.61 0.61 95 1008.2
20260506185959 17 288 0.0 0.0 0.00 0.61 0.61 95 1008.2
20260506184959 16 289 0.0 0.0 0.00 0.61 0.61 95 1008.2
20260506183959 16 289 0.0 1.6 0.00 0.61 0.61 95 1008.4
20260506182959 16 289 1.6 6.4 0.03 0.61 0.61 95 1008.4
20260506181959 16 246 0.0 0.0 0.03 0.61 0.61 95 1008.4
20260506180959 16 249 0.0 0.0 0.05 0.61 0.61 95 1008.3
20260506180000 16 249 1.6 3.2 0.05 0.61 0.61 95 1008.5
20260506174959 16 223 0.0 4.8 0.05 0.61 0.61 95 1008.5
20260506173959 16 246 0.0 3.2 0.05 0.61 0.61 94 1008.5
20260506172959 16 252 0.0 4.8 0.03 0.58 0.58 94 1008.4
20260506171959 16 248 0.0 1.6 0.03 0.58 0.58 94 1008.5
20260506170959 16 248 1.6 6.4 0.00 0.56 0.56 94 1008.6
20260506170000 16 238 0.0 3.2 0.00 0.56 0.56 93 1008.5
20260506164959 16 242 0.0 1.6 0.00 0.56 0.56 93 1008.5
20260506163959 16 242 1.6 4.8 0.00 0.56 0.56 93 1008.5
20260506162959 16 203 0.0 3.2 0.00 0.56 0.56 93 1008.6
20260506162000 16 201 0.0 1.6 0.00 0.56 0.56 93 1008.7
20260506160959 16 201 1.6 9.7 0.00 0.56 0.56 93 1008.6
20260506160000 16 204 3.2 6.4 0.03 0.56 0.56 93 1008.5
20260506154959 16 204 1.6 6.4 0.10 0.56 0.56 93 1008.4
20260506153959 16 203 3.2 6.4 0.15 0.56 0.56 93 1008.5
20260506152959 16 210 4.8 14.5 0.18 0.56 0.56 93 1008.6
20260506151959 16 182 3.2 8.0 0.23 0.56 0.56 93 1008.4
20260506150959 16 205 1.6 6.4 0.33 0.56 0.56 92 1008.4
20260506145959 16 208 1.6 4.8 0.33 0.53 0.53 92 1008.7
20260506144959 16 208 1.6 6.4 0.28 0.46 0.46 92 1008.8
20260506143959 16 205 1.6 6.4 0.23 0.41 0.41 91 1008.9
20260506142959 16 207 1.6 8.0 0.23 0.38 0.38 91 1009.2
20260506141959 16 202 3.2 9.7 0.23 0.33 0.33 90 1009.3
20260506140959 16 209 4.8 9.7 0.13 0.23 0.23 90 1009.2
20260506135959 16 238 1.6 8.0 0.13 0.20 0.20 90 1009.0
20260506134958 16 195 1.6 3.2 0.10 0.18 0.18 90 1008.9
20260506133959 16 207 1.6 4.8 0.10 0.18 0.18 89 1008.8
20260506132959 16 222 1.6 6.4 0.08 0.15 0.15 89 1008.8
20260506131959 16 213 1.6 6.4 0.05 0.10 0.10 88 1008.7
20260506130959 16 215 1.6 6.4 0.05 0.10 0.10 88 1009.1
20260506125959 16 214 0.0 6.4 0.05 0.08 0.08 88 1009.0
20260506124959 16 228 0.0 0.0 0.05 0.08 0.08 88 1008.9
20260506123959 16 228 0.0 1.6 0.05 0.08 0.08 88 1009.0
20260506122959 16 228 0.0 3.2 0.08 0.08 0.08 86 1009.2
20260506121959 16 228 0.0 3.2 0.05 0.05 0.05 85 1009.3
20260506121000 16 228 0.0 1.6 0.05 0.05 0.05 84 1009.4
20260506115959 16 228 0.0 3.2 0.03 0.03 0.03 83 1009.5
20260506114959 17 229 1.6 3.2 0.03 0.03 0.03 81 1009.5
20260506113959 17 227 1.6 4.8 0.03 0.03 0.03 79 1009.3
20260506112959 18 223 4.8 11.3 0.00 0.00 0.00 75 1009.1
20260506111959 18 219 3.2 16.1 0.00 0.00 0.00 71 1008.9
20260506110959 18 219 3.2 4.8 0.00 0.00 0.00 70 1008.8
20260506105959 18 293 3.2 6.4 0.00 0.00 0.00 69 1008.7
20260506104959 19 190 3.2 8.0 0.00 0.00 0.00 68 1008.4
20260506103958 19 205 4.8 11.3 0.00 0.00 0.00 64 1008.4
20260506102957 19 203 3.2 9.7 0.00 0.00 0.00 64 1008.2
20260506101957 19 207 1.6 8.0 0.00 0.00 0.00 64 1008.3
20260506100957 19 206 3.2 6.4 0.00 0.00 0.00 63 1008.2
20260506095958 19 275 3.2 12.9 0.00 0.00 0.00 63 1008.0
20260506094958 19 247 1.6 6.4 0.00 0.00 0.00 62 1008.0
20260506093957 20 244 1.6 8.0 0.00 0.00 0.00 62 1007.9
20260506092958 20 205 3.2 6.4 0.00 0.00 0.00 62 1008.0
20260506091957 20 225 3.2 9.7 0.00 0.00 0.00 62 1008.1
20260506090958 20 238 3.2 8.0 0.00 0.00 0.00 61 1008.3
20260506085958 20 237 3.2 11.3 0.00 0.00 0.00 61 1008.3